1495947600.04,8833,12.75,74486.5,7.63,-29.83,-30.51,0,*48
1495947601.28,8834,12.75,74484.0,7.65,-29.39,-30.11,0,*4C
1495947602.53,8835,12.75,74482.3,7.65,-29.29,-29.95,0,*48
1495947603.72,8836,12.75,74486.0,7.67,-29.79,-30.45,0,*49
1495947604.97,8837,12.75,74480.3,7.65,-29.45,-30.17,0,*42
1495947606.22,8838,12.75,74488.5,7.71,-29.39,-30.05,0,*40
1495947607.47,8839,12.75,74482.5,7.71,-29.89,-30.73,0,*4B
1495947608.7,8840,12.75,74484.8,7.71,-30.73,-31.45,0,*4C
1495947609.89,8841,12.75,74482.0,7.67,-29.79,-30.45,0,*49
1495947611.11,8842,12.75,74490.0,7.71,-29.67,-30.39,0,*49
1495947612.33,8843,12.75,74486.8,7.71,-29.01,-29.67,0,*4B
1495947613.57,8844,12.75,74480.8,7.71,-29.29,-30.05,0,*4A
1495947614.82,8845,12.75,74482.3,7.71,-29.89,-30.61,0,*43
1495947616.05,8846,12.75,74478.0,7.73,-29.57,-30.33,0,*46
1495947617.3,8847,12.75,74478.8,7.73,-30.77,-31.45,0,*4D
1495947618.54,8848,12.75,74482.5,7.73,-31.11,-32.01,0,*40
1495947619.77,8849,12.75,74482.3,7.71,-30.39,-31.11,0,*4A
1495947621.02,8850,12.75,74486.0,7.71,-30.77,-31.51,0,*4C
1495947622.23,8851,12.75,74488.0,7.67,-31.17,-31.91,0,*41
1495947623.43,8852,12.75,74490.0,7.67,-30.27,-31.01,0,*49
1495947624.63,8853,12.75,74478.3,7.67,-30.39,-31.01,0,*47
1495947625.89,8854,12.75,74486.0,7.71,-30.01,-30.77,0,*4C
1495947627.13,8855,12.75,74484.0,7.71,-30.05,-30.61,0,*4E
1495947628.38,8856,12.75,74482.3,7.71,-30.05,-30.61,0,*4D
1495947629.59,8857,12.75,74482.5,7.67,-30.45,-31.11,0,*49
1495947630.83,8858,12.75,74484.8,7.71,-29.73,-30.39,0,*47
1495947632.08,8859,12.75,74482.3,7.71,-29.51,-30.05,0,*49
1495947633.29,8860,12.75,74480.8,7.71,-30.33,-30.95,0,*46
1495947634.56,8861,12.75,74482.8,7.73,-30.05,-30.77,0,*4C
1495947635.84,8862,12.75,74482.0,7.73,-29.39,-30.17,0,*4E
1495947637.08,8863,12.75,74484.3,7.75,-30.01,-30.73,0,*48
1495947638.33,8864,12.75,74482.3,7.73,-29.83,-30.55,0,*4F
1495947639.52,8865,12.75,74482.5,7.75,-29.23,-29.83,0,*41
1495947640.75,8866,12.75,74484.3,7.75,-29.45,-30.01,0,*40
1495947641.96,8867,12.75,74482.8,7.75,-29.83,-30.55,0,*4A
1495947643.16,8868,12.75,74490.3,7.75,-29.67,-30.27,0,*4A
1495947644.38,8869,12.75,74492.5,7.75,-29.79,-30.39,0,*4B
1495947645.63,8870,12.75,74484.0,7.75,-29.51,-30.01,0,*42
1495947646.82,8871,12.75,74484.8,7.75,-29.07,-29.61,0,*4E
1495947648.02,8872,12.75,74490.0,7.79,-29.95,-30.67,0,*44
1495947649.25,8873,12.75,74490.5,7.77,-29.95,-30.67,0,*4B
1495947650.45,8874,12.75,74494.0,7.79,-29.57,-30.23,0,*4C
1495947651.65,8875,12.75,74492.8,7.79,-29.45,-30.27,0,*4A
1495947652.89,8876,12.75,74490.8,7.79,-29.29,-30.05,0,*43
1495947654.08,8877,12.75,74488.3,7.79,-29.57,-30.23,0,*4F
1495947655.3,8878,12.75,74486.0,7.79,-29.73,-30.33,0,*47
1495947656.55,8879,12.75,74486.3,7.81,-29.73,-30.55,0,*41
1495947657.78,8880,12.75,74490.3,7.81,-29.83,-30.55,0,*48
1495947659.0,8881,12.75,74488.5,7.81,-30.77,-31.33,0,*4B
1495947660.2,8882,12.75,74486.0,7.81,-30.27,-31.05,0,*48
1495947661.38,8883,12.75,74484.3,7.79,-30.45,-31.01,0,*4E
1495947662.58,8884,12.75,74480.8,7.79,-30.11,-30.83,0,*43
1495947663.8,8885,12.75,74478.0,7.79,-30.67,-31.57,0,*4B
1495947665.04,8886,12.75,74484.8,7.79,-30.77,-31.57,0,*49
1495947666.23,8887,12.75,74480.0,7.79,-30.67,-31.29,0,*40
1495947667.46,8888,12.75,74484.0,7.81,-30.27,-30.95,0,*4A
1495947668.7,8889,12.75,74486.3,7.77,-30.51,-31.33,0,*4E
1495947669.91,8890,12.75,74484.8,7.79,-30.33,-30.95,0,*41
1495947671.15,8891,12.75,74484.0,7.77,-31.01,-31.73,0,*47
1495947672.39,8892,12.75,74482.5,7.77,-30.83,-31.73,0,*4F
1495947673.61,8893,12.75,74482.3,7.75,-32.13,-32.85,0,*4D
1495947674.8,8894,12.75,74478.0,7.75,-31.45,-32.23,0,*46
1495947676.02,8895,12.75,74478.3,7.75,-31.17,-31.91,0,*4A
1495947677.22,8896,12.75,74480.8,7.75,-32.01,-32.91,0,*4E
1495947678.48,8897,12.75,74482.8,7.73,-32.29,-33.09,0,*43
1495947679.73,8898,12.75,74484.0,7.73,-32.01,-32.85,0,*43
1495947680.94,8899,12.75,74484.5,7.67,-30.83,-31.51,0,*45
1495947682.16,8900,12.75,74490.3,7.71,-30.89,-31.67,0,*4C
1495947683.4,8901,12.75,74490.5,7.71,-31.23,-31.85,0,*40
1495947684.62,8902,12.75,74490.0,7.67,-30.61,-31.33,0,*4E
1495947685.84,8903,12.75,74488.5,7.67,-30.05,-30.83,0,*47
1495947687.03,8904,12.75,74486.3,7.71,-29.67,-30.23,0,*41
1495947688.29,8905,12.75,74490.3,7.71,-29.89,-30.61,0,*46
1495947689.47,8906,12.75,74490.5,7.71,-30.45,-31.05,0,*4E
1495947690.67,8907,12.75,74486.8,7.67,-29.45,-30.23,0,*45
1495947691.89,8908,12.75,74488.5,7.73,-29.83,-30.45,0,*45
1495947693.16,8909,12.75,74484.5,7.73,-30.17,-30.89,0,*41
1495947694.4,8910,12.75,74484.5,7.73,-30.55,-31.29,0,*44
1495947695.6,8911,12.75,74490.5,7.75,-30.83,-31.45,0,*42
1495947696.86,8912,12.75,74484.3,7.73,-30.55,-31.39,0,*47
1495947698.09,8913,12.75,74488.5,7.73,-30.73,-31.67,0,*49
1495947699.36,8914,12.75,74482.3,7.73,-30.77,-31.51,0,*4F
1495947700.63,8915,12.75,74488.3,7.73,-30.01,-30.73,0,*4E
1495947701.9,8916,12.75,74484.0,7.73,-29.51,-30.05,0,*41
1495947703.12,8917,12.75,74484.3,7.75,-29.13,-29.83,0,*46
1495947704.34,8918,12.75,74484.8,7.77,-29.23,-29.83,0,*48
1495947705.59,8919,12.75,74486.8,7.77,-29.79,-30.55,0,*45
1495947706.83,8920,12.75,74482.8,7.75,-30.89,-31.73,0,*4F
1495947708.04,8921,12.75,74486.0,7.77,-30.33,-31.05,0,*4C
1495947709.3,8922,12.75,74476.5,7.77,-29.95,-30.73,0,*4B
1495947710.54,8923,12.75,74488.0,7.77,-29.79,-30.39,0,*46
1495947711.73,8924,12.75,74484.3,7.79,-30.45,-31.17,0,*45
1495947712.98,8925,12.69,74478.8,7.77,-31.05,-31.95,0,*45
1495947714.23,8926,12.75,74482.5,7.77,-31.23,-31.79,0,*40
1495947715.44,8927,12.75,74476.0,7.75,-31.17,-31.91,0,*42
1495947716.71,8928,12.75,74476.8,7.73,-31.95,-32.85,0,*47
1495947717.95,8929,12.75,74482.5,7.73,-32.45,-33.21,0,*47
1495947719.22,8930,12.75,74484.0,7.73,-31.95,-32.85,0,*4E
1495947720.47,8931,12.75,74484.5,7.73,-31.23,-32.13,0,*4D
1495947721.71,8932,12.75,74488.0,7.67,-32.07,-32.79,0,*42
1495947722.94,8933,12.75,74486.0,7.71,-30.77,-31.45,0,*4D
1495947724.15,8934,12.75,74484.5,7.67,-31.01,-31.85,0,*41
1495947725.37,8935,12.75,74488.3,7.67,-31.29,-32.07,0,*43
1495947726.61,8936,12.75,74486.8,7.67,-31.11,-31.91,0,*47
1495947727.82,8937,12.75,74488.3,7.67,-31.01,-31.85,0,*42
1495947729.06,8938,12.75,74484.8,7.65,-32.29,-33.15,0,*4D
1495947730.31,8939,12.75,74492.5,7.65,-31.79,-32.63,0,*4A
1495947731.49,8940,12.75,74490.5,7.63,-32.23,-33.15,0,*4E
1495947732.7,8941,12.75,74492.3,7.63,-32.23,-32.97,0,*44
1495947733.96,8942,12.75,74486.5,7.61,-31.85,-32.69,0,*4B
1495947735.17,8943,12.75,74488.0,7.61,-31.05,-31.67,0,*4F
1495947736.41,8944,12.75,74490.5,7.59,-30.77,-31.57,0,*44
1495947737.63,8945,12.75,74494.5,7.59,-31.29,-32.19,0,*46
1495947738.88,8946,12.75,74494.5,7.59,-31.85,-32.63,0,*4E
1495947740.13,8947,12.75,74492.5,7.59,-31.95,-32.79,0,*45
1495947741.37,8948,12.75,74494.5,7.59,-30.61,-31.39,0,*47
1495947742.63,8949,12.75,74492.8,7.61,-30.77,-31.45,0,*41
1495947743.85,8950,12.75,74494.8,7.59,-30.33,-31.23,0,*42
1495947745.12,8951,12.75,74492.3,7.61,-30.95,-31.57,0,*47
1495947746.33,8952,12.75,74494.0,7.59,-30.33,-30.95,0,*4C
1495947747.58,8953,12.75,74496.5,7.59,-30.05,-30.77,0,*44
1495947748.84,8954,12.75,74492.5,7.59,-29.89,-30.61,0,*48
1495947750.08,8955,12.75,74488.3,7.59,-30.61,-31.39,0,*4B
1495947751.33,8956,12.75,74480.0,7.61,-31.05,-31.95,0,*46
1495947752.52,8957,12.75,74478.8,7.59,-31.45,-32.13,0,*45
1495947753.77,8958,12.75,74478.3,7.59,-32.19,-33.27,0,*46
1495947755.02,8959,12.75,74480.0,7.61,-32.13,-32.85,0,*4F
1495947756.27,8960,12.75,74482.8,7.59,-31.95,-32.79,0,*40
1495947757.5,8961,12.75,74484.5,7.55,-31.79,-32.45,0,*40
1495947758.72,8962,12.75,74480.3,7.57,-29.79,-30.45,0,*4A
1495947759.97,8963,12.75,74480.3,7.57,-29.35,-29.95,0,*46
1495947761.21,8964,12.75,74484.5,7.57,-29.51,-30.11,0,*47
1495947762.42,8965,12.75,74488.3,7.59,-29.57,-30.23,0,*4F
1495947763.63,8966,12.75,74488.8,7.63,-29.29,-29.95,0,*49
1495947764.91,8967,12.75,74488.5,7.61,-30.01,-30.77,0,*4C
1495947766.1,8968,12.75,74488.8,7.63,-30.27,-31.01,0,*45
1495947767.33,8969,12.75,74488.5,7.63,-29.67,-30.17,0,*4E
1495947768.55,8970,12.75,74488.0,7.63,-30.01,-30.67,0,*49
1495947769.75,8971,12.75,74486.5,7.63,-29.67,-30.45,0,*40
1495947770.99,8972,12.75,74490.5,7.65,-30.83,-31.57,0,*45
1495947772.22,8973,12.75,74492.0,7.65,-29.83,-30.33,0,*4F
1495947773.45,8974,12.75,74490.5,7.65,-29.67,-30.33,0,*42
1495947774.69,8975,12.75,74490.0,7.65,-29.13,-29.95,0,*44
1495947775.91,8976,12.75,74490.0,7.67,-29.23,-29.89,0,*4B
1495947777.16,8977,12.75,74494.0,7.71,-29.39,-30.05,0,*4A
1495947778.37,8978,12.75,74486.0,7.67,-29.79,-30.39,0,*49
1495947779.57,8979,12.75,74484.0,7.67,-29.57,-30.23,0,*4F
1495947780.82,8980,12.75,74486.0,7.71,-29.17,-29.89,0,*42
1495947782.01,8981,12.75,74482.8,7.75,-29.67,-30.27,0,*4C
1495947783.25,8982,12.75,74486.3,7.73,-28.97,-29.51,0,*4E
1495947784.47,8983,12.75,74480.0,7.73,-28.97,-29.67,0,*4A
1495947785.7,8984,12.75,74480.5,7.75,-29.95,-30.73,0,*45
1495947786.93,8985,12.75,74482.8,7.73,-30.39,-31.05,0,*4C
1495947788.18,8986,12.75,74480.5,7.75,-29.51,-30.17,0,*4D
1495947789.41,8987,12.75,74482.5,7.75,-29.45,-30.01,0,*4E
1495947790.69,8988,12.75,74484.0,7.77,-29.51,-30.39,0,*4D
1495947791.93,8989,12.75,74484.0,7.77,-29.29,-29.95,0,*4D
1495947793.15,8990,12.75,74486.3,7.79,-29.01,-29.61,0,*4A
1495947794.34,8991,12.75,74482.8,7.79,-29.61,-30.27,0,*47
1495947795.58,8992,12.75,74482.0,7.81,-30.39,-31.11,0,*42
1495947796.84,8993,12.75,74488.5,7.79,-29.89,-30.61,0,*41
1495947798.05,8994,12.75,74484.5,7.79,-30.45,-31.11,0,*48
1495947799.29,8995,12.75,74484.0,7.79,-30.95,-31.73,0,*40
1495947800.5,8996,12.75,74486.8,7.79,-31.39,-32.23,0,*42
1495947801.78,8997,12.75,74482.8,7.77,-32.07,-32.85,0,*4F
1495947803.03,8998,12.75,74484.5,7.77,-31.79,-32.63,0,*42
1495947804.25,8999,12.75,74486.5,7.75,-30.83,-31.61,0,*44
1495947805.49,9000,12.75,74484.0,7.73,-31.85,-32.69,0,*46
1495947806.76,9001,12.75,74486.0,7.73,-31.39,-32.19,0,*47
1495947808.0,9002,12.75,74492.5,7.73,-30.89,-31.67,0,*44
1495947809.27,9003,12.75,74490.8,7.73,-30.17,-30.89,0,*43
1495947810.54,9004,12.75,74486.8,7.73,-29.29,-29.89,0,*49
1495947811.78,9005,12.75,74486.3,7.73,-29.67,-30.39,0,*41
1495947813.06,9006,12.75,74482.5,7.73,-29.39,-30.17,0,*45
1495947814.27,9007,12.75,74480.8,7.75,-29.13,-29.95,0,*48
1495947815.53,9008,12.75,74482.3,7.77,-29.51,-30.33,0,*47
1495947816.76,9009,12.75,74486.0,7.77,-29.61,-30.33,0,*45
1495947818.0,9010,12.75,74486.5,7.77,-30.55,-31.33,0,*43
1495947819.25,9011,12.75,74486.3,7.77,-30.17,-30.83,0,*4E
1495947820.48,9012,12.75,74480.8,7.77,-29.45,-30.11,0,*49
1495947821.7,9013,12.75,74482.5,7.79,-29.67,-30.39,0,*4C
1495947822.92,9014,12.75,74480.5,7.79,-29.39,-30.23,0,*4B
1495947824.12,9015,12.75,74484.0,7.79,-29.95,-30.67,0,*4C
1495947825.32,9016,12.75,74490.0,7.79,-30.11,-30.67,0,*4B
1495947826.52,9017,12.75,74482.5,7.79,-29.61,-30.33,0,*44
1495947827.74,9018,12.75,74484.0,7.79,-29.79,-30.61,0,*45
1495947828.99,9019,12.75,74478.8,7.77,-30.83,-31.73,0,*45
1495947830.21,9020,12.75,74482.8,7.79,-29.95,-30.61,0,*4C
1495947831.44,9021,12.75,74482.3,7.79,-29.89,-30.67,0,*46
1495947832.66,9022,12.75,74482.5,7.81,-30.39,-31.05,0,*44
1495947833.88,9023,12.75,74484.3,7.79,-29.79,-30.61,0,*4D
1495947835.13,9024,12.75,74482.5,7.79,-29.89,-30.51,0,*46
1495947836.35,9025,12.75,74482.0,7.79,-29.45,-30.05,0,*46
1495947837.55,9026,12.75,74480.5,7.79,-29.57,-30.27,0,*46
1495947838.77,9027,12.75,74484.8,7.81,-29.73,-30.27,0,*46
1495947840.0,9028,12.75,74484.3,7.83,-28.85,-29.67,0,*4F
1495947841.25,9029,12.75,74482.3,7.81,-29.35,-30.05,0,*4A
1495947842.47,9030,12.75,74480.3,7.83,-29.57,-30.27,0,*44
1495947843.74,9031,12.75,74480.3,7.83,-30.17,-30.95,0,*40
1495947844.98,9032,12.75,74482.8,7.85,-30.17,-30.83,0,*42
1495947846.23,9033,12.75,74486.5,7.81,-30.01,-30.61,0,*4C
1495947847.48,9034,12.75,74484.3,7.83,-29.83,-30.55,0,*4C
1495947848.71,9035,12.75,74484.8,7.81,-29.83,-30.61,0,*48
1495947849.94,9036,12.75,74484.3,7.83,-29.83,-30.45,0,*4F
1495947851.2,9037,12.75,74490.8,7.83,-29.13,-29.73,0,*4A
1495947852.48,9038,12.75,74488.5,7.83,-29.89,-30.61,0,*4D
1495947853.73,9039,12.75,74488.0,7.83,-29.13,-29.67,0,*41
1495947854.98,9040,12.75,74486.0,7.85,-28.79,-29.35,0,*43
1495947856.21,9041,12.75,74490.8,7.87,-29.45,-30.11,0,*40
1495947857.42,9042,12.75,74490.8,7.85,-29.67,-30.33,0,*41
1495947858.7,9043,12.75,74492.5,7.87,-29.35,-30.01,0,*44
1495947859.92,9044,12.75,74490.3,7.87,-29.07,-29.61,0,*4C
1495947861.15,9045,12.75,74492.0,7.87,-29.07,-29.79,0,*44
1495947862.4,9046,12.75,74494.5,7.87,-29.61,-30.17,0,*47
1495947863.66,9047,12.75,74494.3,7.93,-29.39,-30.05,0,*4D
1495947864.9,9048,12.75,74492.0,7.89,-28.75,-29.29,0,*46
1495947866.14,9049,12.69,74490.0,7.93,-29.17,-29.73,0,*46
1495947867.37,9050,12.75,74490.5,7.93,-28.69,-29.35,0,*44
1495947868.62,9051,12.75,74486.3,7.95,-29.01,-29.57,0,*48
1495947869.89,9052,12.75,74490.3,7.95,-29.01,-29.73,0,*4D
1495947871.12,9053,12.75,74492.3,7.97,-29.45,-30.01,0,*43
1495947872.35,9054,12.75,74492.3,7.95,-29.57,-30.23,0,*45
1495947873.59,9055,12.75,74492.3,7.97,-29.51,-30.33,0,*41
1495947874.84,9056,12.75,74488.8,7.95,-30.11,-30.77,0,*4C
1495947876.07,9057,12.75,74484.5,7.95,-29.67,-30.23,0,*45
1495947877.27,9058,12.75,74488.5,7.97,-29.61,-30.23,0,*4E
1495947878.52,9059,12.75,74488.5,7.95,-29.51,-30.11,0,*4F
1495947879.73,9060,12.75,74490.0,7.97,-29.83,-30.67,0,*49
1495947880.98,9061,12.75,74488.3,7.95,-29.83,-30.55,0,*4B
1495947882.2,9062,12.75,74484.8,7.97,-29.95,-30.55,0,*4D
1495947883.45,9063,12.75,74488.5,7.95,-29.73,-30.45,0,*47
1495947884.68,9064,12.75,74494.0,7.97,-29.45,-30.17,0,*40
1495947885.91,9065,12.75,74484.8,7.97,-30.01,-30.67,0,*4E
1495947887.14,9066,12.75,74490.0,7.97,-30.67,-31.39,0,*47
1495947888.39,9067,12.75,74490.8,7.97,-30.01,-30.73,0,*49
1495947889.65,9068,12.75,74492.0,7.95,-30.11,-30.77,0,*41
1495947890.89,9069,12.75,74488.0,7.97,-30.55,-31.39,0,*49
1495947892.13,9070,12.75,74484.0,7.95,-30.23,-30.95,0,*45
1495947893.36,9071,12.75,74492.3,7.97,-30.17,-30.83,0,*46
1495947894.59,9072,12.75,74492.3,7.97,-29.79,-30.51,0,*4A
1495947895.83,9073,12.75,74490.5,7.97,-30.55,-31.39,0,*42
1495947897.07,9074,12.75,74484.0,7.99,-29.95,-30.51,0,*40
1495947898.32,9075,12.75,74488.0,7.97,-30.39,-31.11,0,*44
1495947899.56,9076,12.75,74486.5,7.97,-30.73,-31.73,0,*4D
1495947900.76,9077,12.75,74484.5,7.97,-30.23,-30.83,0,*47
1495947902.01,9078,12.75,74486.5,7.95,-29.73,-30.27,0,*49
1495947903.24,9079,12.75,74484.5,7.97,-29.95,-30.73,0,*43
1495947904.44,9080,12.75,74482.5,7.97,-30.23,-30.83,0,*4F
1495947905.7,9081,12.75,74486.8,7.97,-30.05,-30.89,0,*40
1495947906.92,9082,12.75,74486.3,7.99,-29.61,-30.33,0,*46
1495947908.15,9083,12.75,74486.0,7.99,-29.95,-30.67,0,*4D
1495947909.38,9084,12.75,74480.3,7.99,-29.95,-30.67,0,*4A
1495947910.66,9085,12.75,74486.0,7.99,-31.23,-32.07,0,*4B
1495947911.91,9086,12.75,74484.5,7.99,-30.17,-30.83,0,*40
1495947913.14,9087,12.75,74486.3,7.97,-29.67,-30.39,0,*41
1495947914.36,9088,12.75,74482.8,7.97,-31.29,-32.07,0,*42
1495947915.59,9089,12.75,74482.0,7.97,-31.61,-32.35,0,*4E
1495947916.84,9090,12.75,74482.0,7.95,-31.61,-32.39,0,*48
1495947918.08,9091,12.75,74482.0,7.95,-30.89,-31.67,0,*46
1495947919.33,9092,12.75,74486.3,7.95,-31.05,-31.95,0,*4D
1495947920.55,9093,12.75,74484.8,7.93,-31.45,-32.29,0,*4A
1495947921.77,9094,12.75,74480.5,7.93,-30.89,-31.67,0,*45
1495947923.02,9095,12.75,74486.0,7.89,-30.73,-31.39,0,*41
1495947924.25,9096,12.75,74484.8,7.89,-30.17,-30.83,0,*40
1495947925.47,9097,12.75,74484.0,7.89,-30.55,-31.17,0,*4B
1495947926.7,9098,12.75,74488.8,7.93,-29.23,-29.89,0,*48
1495947927.94,9099,12.75,74490.3,7.93,-29.83,-30.61,0,*4D
1495947929.17,9100,12.75,74494.3,7.93,-29.01,-29.67,0,*48
1495947930.4,9101,12.75,74502.8,7.93,-28.85,-29.51,0,*41
1495947931.64,9102,12.75,74498.5,7.95,-29.73,-30.45,0,*41
1495947932.87,9103,12.75,74494.0,7.95,-29.67,-30.23,0,*45
1495947934.07,9104,12.75,74494.3,7.97,-29.61,-30.23,0,*46
1495947935.3,9105,12.75,74490.8,7.97,-29.45,-30.05,0,*45
1495947936.5,9106,12.75,74494.5,7.97,-29.61,-30.23,0,*44
1495947937.72,9107,12.75,74492.3,7.97,-29.95,-30.55,0,*4F
1495947938.99,9108,12.75,74492.8,7.99,-29.29,-30.01,0,*48
1495947940.24,9109,12.75,74484.8,7.99,-29.45,-30.05,0,*47
1495947941.46,9110,12.75,74488.5,7.99,-29.61,-30.33,0,*4C
1495947942.71,9111,12.75,74494.3,7.99,-29.83,-30.51,0,*45
1495947943.98,9112,12.75,74490.0,7.99,-30.05,-30.89,0,*45
1495947945.22,9113,12.75,74490.8,7.99,-30.51,-31.29,0,*4E
1495947946.47,9114,12.75,74492.5,8.01,-30.77,-31.51,0,*4C
1495947947.71,9115,12.75,74484.0,7.99,-29.79,-30.39,0,*4A
1495947948.93,9116,12.75,74480.3,7.99,-30.23,-31.01,0,*44
1495947950.15,9117,12.75,74484.3,7.99,-29.61,-30.33,0,*4B
1495947951.41,9118,12.75,74492.0,7.99,-30.39,-31.11,0,*40
1495947952.65,9119,12.75,74492.5,7.99,-29.95,-30.67,0,*4F
1495947953.93,9120,12.75,74486.8,7.99,-29.35,-30.17,0,*48
1495947955.17,9121,12.75,74486.5,7.99,-30.05,-30.83,0,*4F
1495947956.39,9122,12.75,74486.0,8.01,-30.51,-31.33,0,*49
1495947957.61,9123,12.75,74480.8,8.01,-29.29,-29.95,0,*4A
1495947958.8,9124,12.75,74484.0,8.01,-30.33,-31.05,0,*4E
1495947960.07,9125,12.75,74484.3,7.99,-31.95,-32.97,0,*44
1495947961.31,9126,12.75,74484.5,7.99,-32.13,-32.97,0,*4A
1495947962.53,9127,12.75,74486.5,7.95,-31.29,-32.01,0,*42
1495947963.78,9128,12.75,74484.8,7.95,-30.23,-30.89,0,*44
1495947965.0,9129,12.75,74484.8,7.97,-29.79,-30.51,0,*45
1495947966.23,9130,12.75,74484.8,7.97,-29.95,-30.55,0,*4B
1495947967.45,9131,12.75,74484.0,7.97,-30.23,-30.89,0,*4E
1495947968.68,9132,12.75,74488.0,7.97,-30.83,-31.61,0,*40
1495947969.92,9133,12.75,74488.0,7.95,-30.55,-31.17,0,*49
1495947971.14,9134,12.75,74488.0,7.95,-30.45,-31.17,0,*4F
1495947972.36,9135,12.75,74488.3,7.95,-30.45,-31.17,0,*4E
1495947973.64,9136,12.75,74488.8,7.95,-29.39,-30.05,0,*4C
1495947974.86,9137,12.75,74490.3,7.97,-29.29,-29.95,0,*4F
1495947976.12,9138,12.75,74488.3,7.99,-28.75,-29.29,0,*41
1495947977.39,9139,12.75,74488.5,7.99,-29.29,-30.17,0,*4D
1495947978.62,9140,12.75,74494.5,8.01,-29.89,-30.45,0,*40
1495947979.82,9141,12.75,74492.5,8.01,-29.79,-30.33,0,*4F
1495947981.03,9142,12.75,74490.5,8.01,-29.29,-29.79,0,*4F
1495947982.23,9143,12.75,74492.3,8.01,-28.53,-29.23,0,*4D
1495947983.43,9144,12.75,74490.5,8.01,-29.61,-30.33,0,*43
1495947984.66,9145,12.75,74488.8,8.05,-29.95,-30.73,0,*49
1495947985.88,9146,12.75,74486.8,8.03,-30.27,-31.01,0,*49
1495947987.11,9147,12.75,74488.0,8.03,-29.23,-29.83,0,*47
1495947988.36,9148,12.75,74490.8,8.03,-30.11,-30.77,0,*42
1495947989.64,9149,12.75,74488.5,8.03,-29.39,-30.05,0,*44
1495947990.89,9150,12.75,74496.0,8.05,-29.39,-29.89,0,*46
1495947992.14,9151,12.75,74494.5,8.05,-29.39,-30.05,0,*4B
1495947993.4,9152,12.75,74490.8,8.07,-29.17,-30.01,0,*42
1495947994.65,9153,12.75,74488.8,8.07,-28.79,-29.45,0,*42
1495947995.86,9154,12.75,74486.5,8.09,-28.79,-29.61,0,*4D
1495947997.08,9155,12.75,74482.8,8.09,-30.61,-31.33,0,*42
1495947998.34,9156,12.75,74486.5,8.07,-30.55,-31.23,0,*49
1495947999.58,9157,12.75,74490.3,8.07,-30.33,-31.11,0,*49
1495948000.79,9158,12.75,74486.0,8.05,-30.61,-31.33,0,*43
1495948002.01,9159,12.75,74486.8,8.05,-30.89,-31.67,0,*45
1495948003.25,9160,12.75,74488.0,8.05,-30.77,-31.51,0,*4B
1495948004.5,9161,12.75,74488.8,8.03,-31.33,-32.19,0,*42
1495948005.74,9162,12.75,74490.5,8.03,-31.17,-31.85,0,*41
1495948006.98,9163,12.75,74488.0,8.03,-30.61,-31.33,0,*4D
1495948008.26,9164,12.75,74490.5,8.03,-30.05,-30.73,0,*4D
1495948009.53,9165,12.75,74492.0,8.03,-29.17,-29.73,0,*4F
1495948010.78,9166,12.75,74492.3,8.03,-29.01,-29.67,0,*4E
1495948012.03,9167,12.75,74490.3,8.03,-28.91,-29.57,0,*44
1495948013.25,9168,12.75,74496.5,8.05,-29.17,-29.95,0,*4C
1495948014.51,9169,12.75,74498.0,8.07,-28.75,-29.35,0,*40
1495948015.78,9170,12.75,74494.8,8.07,-29.29,-29.89,0,*47
1495948017.04,9171,12.75,74492.5,8.09,-30.17,-30.89,0,*45
1495948018.25,9172,12.75,74486.3,8.09,-29.73,-30.45,0,*4C
1495948019.48,9173,12.75,74492.0,8.11,-29.57,-30.33,0,*43
1495948020.74,9174,12.75,74488.5,8.07,-30.51,-30.95,0,*41
1495948021.97,9175,12.75,74488.8,8.09,-29.45,-30.17,0,*49
1495948023.19,9176,12.75,74494.5,8.09,-29.73,-30.45,0,*48
1495948024.45,9177,12.75,74494.3,8.09,-29.39,-30.17,0,*40
1495948025.69,9178,12.75,74498.0,8.07,-29.45,-30.05,0,*49
1495948026.89,9179,12.75,74492.5,8.09,-29.45,-30.11,0,*43
1495948028.11,9180,12.75,74494.5,8.09,-29.29,-30.11,0,*4F
1495948029.31,9181,12.75,74490.5,8.09,-29.57,-30.27,0,*42
1495948030.52,9182,12.75,74490.5,8.15,-29.07,-29.73,0,*40
1495948031.74,9183,12.75,74494.0,8.11,-29.23,-29.79,0,*49
1495948032.92,9184,12.69,74486.0,8.15,-29.07,-29.79,0,*4C
1495948034.14,9185,12.75,74482.3,8.15,-29.07,-29.73,0,*47
1495948035.33,9186,12.75,74478.8,8.15,-29.79,-30.45,0,*40
1495948036.55,9187,12.75,74488.0,8.15,-30.27,-31.11,0,*42
1495948037.76,9188,12.75,74486.3,8.15,-30.95,-31.79,0,*4A
1495948038.98,9189,12.75,74482.0,8.15,-29.39,-30.11,0,*4A
1495948040.18,9190,12.75,74486.5,8.15,-29.67,-30.27,0,*4C
1495948041.43,9191,12.75,74482.8,8.15,-29.89,-30.61,0,*4F
1495948042.65,9192,12.75,74484.5,8.15,-30.83,-31.51,0,*4C
1495948043.89,9193,12.75,74488.0,8.11,-31.73,-32.57,0,*42
1495948045.1,9194,12.75,74490.8,8.11,-30.45,-31.17,0,*46
1495948046.33,9195,12.75,74490.3,8.09,-29.83,-30.61,0,*4C
1495948047.56,9196,12.75,74492.8,8.09,-30.17,-30.83,0,*46
1495948048.76,9197,12.75,74494.5,8.09,-29.23,-29.83,0,*40
1495948049.98,9198,12.75,74494.8,8.11,-29.79,-30.45,0,*4B
1495948051.22,9199,12.75,74490.0,8.11,-29.29,-29.95,0,*4A
1495948052.44,9200,12.75,74492.0,8.15,-29.51,-30.11,0,*46
1495948053.66,9201,12.75,74490.3,8.15,-29.73,-30.27,0,*42
1495948054.85,9202,12.75,74490.0,8.15,-29.57,-30.27,0,*47
1495948056.06,9203,12.75,74492.8,8.15,-30.39,-31.17,0,*44
1495948057.31,9204,12.75,74488.5,8.15,-30.73,-31.51,0,*4F
1495948058.57,9205,12.75,74484.3,8.11,-30.89,-31.57,0,*49
1495948059.79,9206,12.75,74492.5,8.11,-30.11,-30.83,0,*43
1495948061.05,9207,12.75,74486.5,8.11,-29.57,-30.17,0,*45
1495948062.26,9208,12.75,74494.5,8.11,-29.23,-29.79,0,*49
1495948063.48,9209,12.75,74490.5,8.15,-28.91,-29.57,0,*48
1495948064.68,9210,12.75,74494.8,8.15,-29.67,-30.23,0,*43
1495948065.92,9211,12.75,74494.5,8.15,-30.05,-30.73,0,*4B
1495948067.2,9212,12.75,74498.0,8.17,-29.35,-30.05,0,*40
1495948068.45,9213,12.75,74498.8,8.17,-29.83,-30.55,0,*49
1495948069.69,9214,12.75,74492.0,8.17,-29.13,-29.83,0,*44
1495948070.94,9215,12.75,74498.5,8.17,-29.13,-29.83,0,*45
1495948072.17,9216,12.75,74496.5,8.17,-29.61,-30.33,0,*40
1495948073.45,9217,12.75,74498.5,8.17,-29.51,-30.17,0,*44
1495948074.68,9218,12.75,74490.3,8.19,-29.51,-30.23,0,*42
1495948075.93,9219,12.75,74490.3,8.21,-29.39,-30.11,0,*47
1495948077.18,9220,12.75,74494.5,8.17,-29.89,-30.33,0,*43
1495948078.41,9221,12.75,74492.0,8.19,-29.01,-29.67,0,*45
1495948079.65,9222,12.75,74490.5,8.21,-29.13,-29.95,0,*43
1495948080.87,9223,12.75,74490.3,8.21,-29.95,-30.67,0,*49
1495948082.14,9224,12.75,74490.3,8.21,-30.01,-30.61,0,*4D
1495948083.37,9225,12.75,74492.5,8.19,-29.45,-30.05,0,*4D
1495948084.59,9226,12.75,74494.8,8.19,-29.01,-29.67,0,*42
1495948085.84,9227,12.75,74496.8,8.23,-29.39,-30.01,0,*49
1495948087.08,9228,12.75,74492.3,8.21,-28.75,-29.67,0,*45
1495948088.34,9229,12.75,74494.3,8.21,-28.63,-29.29,0,*49
1495948089.56,9230,12.75,74492.0,8.23,-29.29,-30.11,0,*4F
1495948090.77,9231,12.75,74496.3,8.23,-29.39,-30.11,0,*4F
1495948092.02,9232,12.75,74492.0,8.23,-30.01,-30.73,0,*4B
1495948093.24,9233,12.75,74494.8,8.23,-28.91,-29.57,0,*44
1495948094.48,9234,12.75,74490.8,8.25,-30.05,-30.67,0,*4A
1495948095.73,9235,12.75,74486.8,8.25,-29.39,-29.95,0,*49
1495948096.98,9236,12.75,74486.8,8.25,-29.35,-30.11,0,*42
1495948098.22,9237,12.75,74490.5,8.25,-29.07,-29.73,0,*4E
1495948099.44,9238,12.75,74494.8,8.25,-29.07,-29.61,0,*42
1495948100.68,9239,12.75,74494.0,8.25,-29.35,-29.95,0,*49
1495948101.9,9240,12.75,74498.8,8.27,-28.97,-29.73,0,*44
1495948103.09,9241,12.75,74494.0,8.27,-28.85,-29.45,0,*43
1495948104.33,9242,12.75,74498.0,8.27,-28.79,-29.51,0,*46
1495948105.56,9243,12.75,74496.3,8.27,-28.85,-29.51,0,*44
1495948106.82,9244,12.75,74494.0,8.29,-29.13,-29.73,0,*43
1495948108.02,9245,12.75,74494.5,8.27,-29.57,-30.33,0,*40
1495948109.29,9246,12.75,74494.0,8.29,-29.73,-30.39,0,*41